Time,TemperatureF,DewpointF,PressureIn,WindDirection,WindDirectionDegrees,WindSpeedMPH,WindSpeedGustMPH,Humidity,HourlyPrecipIn,Conditions,Clouds,dailyrainin,SoftwareType,DateUTC
2013-04-02 00:00:00,38.3,14.4,29.98,NW,326,2.0,15.0,37,0.00,,,0.00,meteohub,2013-04-02 04:00:00,
2013-04-02 00:05:00,38.1,14.2,29.98,WNW,300,6.0,9.0,37,0.00,,,0.00,meteohub,2013-04-02 04:05:00,
2013-04-02 00:10:00,38.1,14.2,29.98,NW,321,1.0,9.0,37,0.00,,,0.00,meteohub,2013-04-02 04:10:00,
2013-04-02 00:15:00,37.9,14.5,29.98,WNW,294,4.0,9.0,38,0.00,,,0.00,meteohub,2013-04-02 04:15:00,
2013-04-02 00:20:00,37.8,14.4,29.98,WNW,283,2.0,9.0,38,0.00,,,0.00,meteohub,2013-04-02 04:20:00,
2013-04-02 00:25:00,37.8,14.4,29.99,NNW,338,4.0,9.0,38,0.00,,,0.00,meteohub,2013-04-02 04:25:00,
2013-04-02 00:30:00,37.6,14.9,29.99,NNW,328,3.0,8.0,39,0.00,,,0.00,meteohub,2013-04-02 04:30:00,
2013-04-02 00:35:00,37.6,14.2,29.99,West,281,3.0,9.0,38,0.00,,,0.00,meteohub,2013-04-02 04:35:00,
2013-04-02 00:40:00,37.6,14.9,29.99,NW,306,7.0,11.0,39,0.00,,,0.00,meteohub,2013-04-02 04:40:00,
2013-04-02 00:45:00,37.2,14.5,29.99,NW,317,5.0,11.0,39,0.00,,,0.00,meteohub,2013-04-02 04:45:00,
2013-04-02 00:50:00,37.2,14.5,29.99,NW,308,6.0,11.0,39,0.00,,,0.00,meteohub,2013-04-02 04:50:00,
2013-04-02 00:55:00,37.2,14.5,30.00,NNW,333,3.0,9.0,39,0.00,,,0.00,meteohub,2013-04-02 04:55:00,
2013-04-02 01:00:00,37.0,14.4,30.00,NNW,329,1.0,9.0,39,0.00,,,0.00,meteohub,2013-04-02 05:00:00,
2013-04-02 01:05:00,37.0,14.4,30.00,NW,312,4.0,9.0,39,0.00,,,0.00,meteohub,2013-04-02 05:05:00,
2013-04-02 01:11:00,36.9,14.2,30.00,NNW,328,1.0,9.0,39,0.00,,,0.00,meteohub,2013-04-02 05:11:00,
2013-04-02 01:16:00,36.7,14.5,30.00,NNW,328,1.0,5.0,40,0.00,,,0.00,meteohub,2013-04-02 05:16:00,
2013-04-02 01:21:00,36.5,14.5,30.00,WNW,291,2.0,5.0,40,0.00,,,0.00,meteohub,2013-04-02 05:21:00,
2013-04-02 01:26:00,36.3,14.4,30.01,West,277,1.0,5.0,40,0.00,,,0.00,meteohub,2013-04-02 05:26:00,
2013-04-02 01:31:00,36.3,14.9,30.01,NW,326,1.0,7.0,41,0.00,,,0.00,meteohub,2013-04-02 05:31:00,
2013-04-02 01:36:00,36.1,14.7,30.01,WNW,295,4.0,7.0,41,0.00,,,0.00,meteohub,2013-04-02 05:36:00,
2013-04-02 01:41:00,36.1,14.7,30.01,NW,315,1.0,7.0,41,0.00,,,0.00,meteohub,2013-04-02 05:41:00,
2013-04-02 01:47:00,36.1,14.7,30.01,NW,318,1.0,7.0,41,0.00,,,0.00,meteohub,2013-04-02 05:47:00,
2013-04-02 01:52:00,36.0,15.1,30.01,NW,315,0.0,7.0,42,0.00,,,0.00,meteohub,2013-04-02 05:52:00,
2013-04-02 01:57:00,35.8,15.4,30.01,WNW,296,1.0,7.0,43,0.00,,,0.00,meteohub,2013-04-02 05:57:00,
2013-04-02 02:02:00,35.4,15.1,30.01,WNW,287,2.0,3.0,43,0.00,,,0.00,meteohub,2013-04-02 06:02:00,
2013-04-02 02:07:00,35.4,15.1,30.01,WNW,300,2.0,3.0,43,0.00,,,0.00,meteohub,2013-04-02 06:07:00,
2013-04-02 02:12:00,35.2,14.9,30.01,WNW,293,1.0,4.0,43,0.00,,,0.00,meteohub,2013-04-02 06:12:00,
2013-04-02 02:17:00,35.2,14.9,30.00,West,281,1.0,4.0,43,0.00,,,0.00,meteohub,2013-04-02 06:17:00,
2013-04-02 02:22:00,35.1,15.3,30.00,West,276,1.0,4.0,44,0.00,,,0.00,meteohub,2013-04-02 06:22:00,
2013-04-02 02:27:00,34.9,15.3,30.00,WNW,291,1.0,3.0,44,0.00,,,0.00,meteohub,2013-04-02 06:27:00,
2013-04-02 02:32:00,34.7,15.4,30.00,West,277,1.0,3.0,45,0.00,,,0.00,meteohub,2013-04-02 06:32:00,
2013-04-02 02:37:00,34.5,15.4,30.00,WNW,287,0.0,3.0,45,0.00,,,0.00,meteohub,2013-04-02 06:37:00,
2013-04-02 02:42:00,34.3,15.6,30.00,West,276,1.0,3.0,46,0.00,,,0.00,meteohub,2013-04-02 06:42:00,
2013-04-02 02:47:00,34.2,16.0,30.00,West,278,1.0,3.0,47,0.00,,,0.00,meteohub,2013-04-02 06:47:00,
2013-04-02 02:52:00,34.0,15.8,30.00,West,267,1.0,3.0,47,0.00,,,0.00,meteohub,2013-04-02 06:52:00,
2013-04-02 02:57:00,33.6,16.0,30.00,WNW,298,2.0,3.0,48,0.00,,,0.00,meteohub,2013-04-02 06:57:00,
2013-04-02 03:02:00,33.6,16.0,30.00,West,280,1.0,3.0,48,0.00,,,0.00,meteohub,2013-04-02 07:02:00,
2013-04-02 03:07:00,33.6,16.5,30.00,WNW,285,1.0,3.0,49,0.00,,,0.00,meteohub,2013-04-02 07:07:00,
2013-04-02 03:12:00,33.4,16.3,30.00,West,280,0.0,3.0,49,0.00,,,0.00,meteohub,2013-04-02 07:12:00,
2013-04-02 03:17:00,33.4,16.3,30.00,West,274,2.0,3.0,49,0.00,,,0.00,meteohub,2013-04-02 07:17:00,
2013-04-02 03:22:00,33.4,16.9,29.99,WNW,284,1.0,3.0,50,0.00,,,0.00,meteohub,2013-04-02 07:22:00,
2013-04-02 03:27:00,33.3,16.7,30.00,WNW,298,1.0,3.0,50,0.00,,,0.00,meteohub,2013-04-02 07:27:00,
2013-04-02 03:32:00,33.1,16.9,30.00,WNW,301,1.0,3.0,51,0.00,,,0.00,meteohub,2013-04-02 07:32:00,
2013-04-02 03:37:00,32.9,16.7,30.00,WNW,283,0.0,3.0,51,0.00,,,0.00,meteohub,2013-04-02 07:37:00,
2013-04-02 03:42:00,32.9,16.7,30.00,NW,312,0.0,3.0,51,0.00,,,0.00,meteohub,2013-04-02 07:42:00,
2013-04-02 03:47:00,32.7,17.1,30.00,WNW,284,1.0,2.0,52,0.00,,,0.00,meteohub,2013-04-02 07:47:00,
2013-04-02 03:52:00,32.7,17.1,30.00,WNW,283,1.0,3.0,52,0.00,,,0.00,meteohub,2013-04-02 07:52:00,
2013-04-02 03:57:00,32.7,17.1,30.00,West,280,0.0,3.0,52,0.00,,,0.00,meteohub,2013-04-02 07:57:00,
2013-04-02 04:02:00,32.7,17.1,30.00,West,276,0.0,3.0,52,0.00,,,0.00,meteohub,2013-04-02 08:02:00,
2013-04-02 04:07:00,32.7,17.1,30.00,West,262,2.0,2.0,52,0.00,,,0.00,meteohub,2013-04-02 08:07:00,
2013-04-02 04:12:00,32.9,17.2,30.00,West,268,0.0,3.0,52,0.00,,,0.00,meteohub,2013-04-02 08:12:00,
2013-04-02 04:17:00,32.7,17.1,30.00,WNW,296,2.0,3.0,52,0.00,,,0.00,meteohub,2013-04-02 08:17:00,
2013-04-02 04:22:00,32.7,17.1,30.00,West,260,1.0,3.0,52,0.00,,,0.00,meteohub,2013-04-02 08:22:00,
2013-04-02 04:27:00,32.5,16.9,30.00,West,269,0.0,3.0,52,0.00,,,0.00,meteohub,2013-04-02 08:27:00,
2013-04-02 04:32:00,32.4,17.1,30.00,WNW,285,1.0,3.0,53,0.00,,,0.00,meteohub,2013-04-02 08:32:00,
2013-04-02 04:37:00,32.2,17.1,30.00,West,264,0.0,2.0,53,0.00,,,0.00,meteohub,2013-04-02 08:37:00,
2013-04-02 04:42:00,32.0,16.9,30.00,West,264,0.0,2.0,53,0.00,,,0.00,meteohub,2013-04-02 08:42:00,
2013-04-02 04:47:00,32.0,16.9,30.00,WNW,287,1.0,3.0,53,0.00,,,0.00,meteohub,2013-04-02 08:47:00,
2013-04-02 04:52:00,32.0,16.9,30.00,West,262,0.0,3.0,53,0.00,,,0.00,meteohub,2013-04-02 08:52:00,
2013-04-02 04:57:00,31.8,16.7,30.00,West,277,0.0,3.0,53,0.00,,,0.00,meteohub,2013-04-02 08:57:00,
2013-04-02 05:02:00,31.6,16.9,30.00,West,271,0.0,3.0,54,0.00,,,0.00,meteohub,2013-04-02 09:02:00,
2013-04-02 05:07:00,31.6,16.9,30.00,West,277,2.0,3.0,54,0.00,,,0.00,meteohub,2013-04-02 09:07:00,
2013-04-02 05:12:00,31.6,16.9,30.00,West,281,0.0,3.0,54,0.00,,,0.00,meteohub,2013-04-02 09:12:00,
2013-04-02 05:17:00,31.3,17.4,30.00,SSW,202,0.0,3.0,56,0.00,,,0.00,meteohub,2013-04-02 09:17:00,
2013-04-02 05:22:00,31.1,17.2,30.01,WNW,284,0.0,3.0,56,0.00,,,0.00,meteohub,2013-04-02 09:22:00,
2013-04-02 05:27:00,30.9,17.4,30.00,WSW,256,0.0,1.0,57,0.00,,,0.00,meteohub,2013-04-02 09:27:00,
2013-04-02 05:32:00,31.1,17.2,30.01,West,274,1.0,2.0,56,0.00,,,0.00,meteohub,2013-04-02 09:32:00,
2013-04-02 05:37:00,31.3,17.4,30.01,West,267,3.0,4.0,56,0.00,,,0.00,meteohub,2013-04-02 09:37:00,
2013-04-02 05:42:00,31.5,17.2,30.01,West,276,1.0,5.0,55,0.00,,,0.00,meteohub,2013-04-02 09:42:00,
2013-04-02 05:47:00,31.6,17.2,30.02,West,271,3.0,5.0,55,0.00,,,0.00,meteohub,2013-04-02 09:47:00,
2013-04-02 05:52:00,31.6,16.9,30.02,WNW,290,2.0,5.0,54,0.00,,,0.00,meteohub,2013-04-02 09:52:00,
2013-04-02 05:57:00,31.6,17.2,30.02,WSW,257,1.0,5.0,55,0.00,,,0.00,meteohub,2013-04-02 09:57:00,
2013-04-02 06:03:00,31.6,16.9,30.02,WNW,284,1.0,5.0,54,0.00,,,0.00,meteohub,2013-04-02 10:03:00,
2013-04-02 06:07:00,31.6,16.9,30.03,West,274,2.0,5.0,54,0.00,,,0.00,meteohub,2013-04-02 10:07:00,
2013-04-02 06:13:00,31.6,16.9,30.03,West,281,1.0,5.0,54,0.00,,,0.00,meteohub,2013-04-02 10:13:00,
2013-04-02 06:18:00,31.6,17.2,30.03,West,269,1.0,5.0,55,0.00,,,0.00,meteohub,2013-04-02 10:18:00,
2013-04-02 06:23:00,31.5,17.2,30.02,West,281,2.0,5.0,55,0.00,,,0.00,meteohub,2013-04-02 10:23:00,
2013-04-02 06:28:00,31.5,17.2,30.03,West,263,1.0,4.0,55,0.00,,,0.00,meteohub,2013-04-02 10:28:00,
2013-04-02 06:33:00,31.5,17.2,30.03,West,281,2.0,4.0,55,0.00,,,0.00,meteohub,2013-04-02 10:33:00,
2013-04-02 06:38:00,31.5,17.6,30.03,West,260,1.0,5.0,56,0.00,,,0.00,meteohub,2013-04-02 10:38:00,
2013-04-02 06:43:00,31.3,17.8,30.03,West,266,0.0,5.0,57,0.00,,,0.00,meteohub,2013-04-02 10:43:00,
2013-04-02 06:48:00,30.9,17.4,30.04,WNW,287,2.0,5.0,57,0.00,,,0.00,meteohub,2013-04-02 10:48:00,
2013-04-02 06:53:00,31.3,17.4,30.04,WNW,285,1.0,4.0,56,0.00,,,0.00,meteohub,2013-04-02 10:53:00,
2013-04-02 06:58:00,31.5,17.2,30.04,West,267,1.0,5.0,55,0.00,,,0.00,meteohub,2013-04-02 10:58:00,
2013-04-02 07:03:00,31.6,16.9,30.04,West,267,2.0,5.0,54,0.00,,,0.00,meteohub,2013-04-02 11:03:00,
2013-04-02 07:08:00,31.6,16.9,30.04,WNW,285,2.0,5.0,54,0.00,,,0.00,meteohub,2013-04-02 11:08:00,
2013-04-02 07:13:00,31.8,17.1,30.04,WNW,293,2.0,5.0,54,0.00,,,0.00,meteohub,2013-04-02 11:13:00,
2013-04-02 07:18:00,32.0,17.2,30.05,WNW,287,1.0,5.0,54,0.00,,,0.00,meteohub,2013-04-02 11:18:00,
2013-04-02 07:23:00,32.2,17.4,30.05,NW,311,1.0,5.0,54,0.00,,,0.00,meteohub,2013-04-02 11:23:00,
2013-04-02 07:28:00,32.2,17.4,30.05,NW,313,2.0,5.0,54,0.00,,,0.00,meteohub,2013-04-02 11:28:00,
2013-04-02 07:33:00,32.4,17.1,30.05,West,278,2.0,3.0,53,0.00,,,0.00,meteohub,2013-04-02 11:33:00,
2013-04-02 07:38:00,32.5,16.9,30.05,WNW,284,4.0,5.0,52,0.00,,,0.00,meteohub,2013-04-02 11:38:00,
2013-04-02 07:43:00,32.9,17.6,30.05,WNW,300,6.0,7.0,53,0.00,,,0.00,meteohub,2013-04-02 11:43:00,
2013-04-02 07:48:00,33.1,17.4,30.06,WNW,296,3.0,8.0,52,0.00,,,0.00,meteohub,2013-04-02 11:48:00,
2013-04-02 07:53:00,33.3,17.6,30.06,NW,309,3.0,8.0,52,0.00,,,0.00,meteohub,2013-04-02 11:53:00,
2013-04-02 07:58:00,33.3,17.6,30.06,WNW,297,4.0,8.0,52,0.00,,,0.00,meteohub,2013-04-02 11:58:00,
2013-04-02 08:03:00,33.6,17.4,30.06,WNW,295,2.0,7.0,51,0.00,,,0.00,meteohub,2013-04-02 12:03:00,
2013-04-02 08:08:00,34.0,17.8,30.06,WNW,288,5.0,9.0,51,0.00,,,0.00,meteohub,2013-04-02 12:08:00,
2013-04-02 08:13:00,34.3,17.6,30.06,WNW,297,4.0,9.0,50,0.00,,,0.00,meteohub,2013-04-02 12:13:00,
2013-04-02 08:18:00,34.7,17.4,30.06,West,262,5.0,9.0,49,0.00,,,0.00,meteohub,2013-04-02 12:18:00,
2013-04-02 08:23:00,34.9,17.2,30.06,WNW,293,5.0,8.0,48,0.00,,,0.00,meteohub,2013-04-02 12:23:00,
2013-04-02 08:28:00,35.2,17.6,30.06,WNW,298,3.0,11.0,48,0.00,,,0.00,meteohub,2013-04-02 12:28:00,
2013-04-02 08:33:00,35.4,18.1,30.06,WNW,291,7.0,11.0,49,0.00,,,0.00,meteohub,2013-04-02 12:33:00,
2013-04-02 08:38:00,35.6,17.8,30.06,WNW,283,5.0,13.0,48,0.00,,,0.00,meteohub,2013-04-02 12:38:00,
2013-04-02 08:43:00,36.0,17.6,30.07,West,271,6.0,13.0,47,0.00,,,0.00,meteohub,2013-04-02 12:43:00,
2013-04-02 08:48:00,36.1,16.9,30.07,WNW,284,12.0,13.0,45,0.00,,,0.00,meteohub,2013-04-02 12:48:00,
2013-04-02 08:53:00,36.5,17.2,30.07,WNW,298,4.0,13.0,45,0.00,,,0.00,meteohub,2013-04-02 12:53:00,
2013-04-02 08:58:00,36.3,16.0,30.07,WNW,285,12.0,17.0,43,0.00,,,0.00,meteohub,2013-04-02 12:58:00,
2013-04-02 09:03:00,36.7,15.8,30.07,NNW,328,7.0,17.0,42,0.00,,,0.00,meteohub,2013-04-02 13:03:00,
2013-04-02 09:08:00,36.9,16.0,30.07,WNW,290,7.0,17.0,42,0.00,,,0.00,meteohub,2013-04-02 13:08:00,
2013-04-02 09:13:00,37.0,15.4,30.07,NW,312,6.0,18.0,41,0.00,,,0.00,meteohub,2013-04-02 13:13:00,
2013-04-02 09:18:00,37.0,14.9,30.08,WNW,297,20.0,20.0,40,0.00,,,0.00,meteohub,2013-04-02 13:18:00,
2013-04-02 09:23:00,36.9,14.7,30.07,West,262,15.0,26.0,40,0.00,,,0.00,meteohub,2013-04-02 13:23:00,
2013-04-02 09:28:00,36.9,14.2,30.07,NW,308,8.0,26.0,39,0.00,,,0.00,meteohub,2013-04-02 13:28:00,
2013-04-02 09:33:00,37.0,14.4,30.07,NW,311,6.0,26.0,39,0.00,,,0.00,meteohub,2013-04-02 13:33:00,
2013-04-02 09:38:00,37.0,13.8,30.07,WNW,288,7.0,24.0,38,0.00,,,0.00,meteohub,2013-04-02 13:38:00,
2013-04-02 09:44:00,37.2,13.3,30.08,WNW,289,17.0,31.0,37,0.00,,,0.00,meteohub,2013-04-02 13:44:00,
2013-04-02 09:48:00,37.2,14.5,30.08,NW,312,4.0,31.0,39,0.00,,,0.00,meteohub,2013-04-02 13:48:00,
2013-04-02 09:53:00,37.6,14.9,30.08,WNW,285,15.0,31.0,39,0.00,,,0.00,meteohub,2013-04-02 13:53:00,
2013-04-02 09:59:00,37.2,14.5,30.08,WNW,297,10.0,28.0,39,0.00,,,0.00,meteohub,2013-04-02 13:59:00,
2013-04-02 10:04:00,37.6,16.0,30.08,NW,309,13.0,28.0,41,0.00,,,0.00,meteohub,2013-04-02 14:04:00,
2013-04-02 10:09:00,37.2,15.6,30.08,NW,320,8.0,28.0,41,0.00,,,0.00,meteohub,2013-04-02 14:09:00,
2013-04-02 10:14:00,37.0,15.4,30.08,WSW,253,10.0,18.0,41,0.00,,,0.00,meteohub,2013-04-02 14:14:00,
2013-04-02 10:19:00,37.2,16.7,30.08,NNW,347,6.0,18.0,43,0.00,,,0.00,meteohub,2013-04-02 14:19:00,
2013-04-02 10:24:00,37.8,15.6,30.08,West,267,8.0,17.0,40,0.00,,,0.00,meteohub,2013-04-02 14:24:00,
2013-04-02 10:29:00,37.9,15.8,30.09,WNW,291,11.0,17.0,40,0.00,,,0.00,meteohub,2013-04-02 14:29:00,
2013-04-02 10:34:00,37.8,15.6,30.09,NNW,344,8.0,17.0,40,0.00,,,0.00,meteohub,2013-04-02 14:34:00,
2013-04-02 10:39:00,37.9,16.9,30.08,NNW,331,7.0,18.0,42,0.00,,,0.00,meteohub,2013-04-02 14:39:00,
2013-04-02 10:44:00,37.8,15.6,30.09,WNW,283,10.0,18.0,40,0.00,,,0.00,meteohub,2013-04-02 14:44:00,
2013-04-02 10:49:00,37.8,15.1,30.08,WNW,287,16.0,18.0,39,0.00,,,0.00,meteohub,2013-04-02 14:49:00,
2013-04-02 10:54:00,38.1,16.0,30.08,NW,309,11.0,21.0,40,0.00,,,0.00,meteohub,2013-04-02 14:54:00,
2013-04-02 10:59:00,38.7,15.8,30.08,NNW,343,10.0,21.0,39,0.00,,,0.00,meteohub,2013-04-02 14:59:00,
2013-04-02 11:04:00,39.0,16.2,30.08,WNW,293,7.0,21.0,39,0.00,,,0.00,meteohub,2013-04-02 15:04:00,
2013-04-02 11:09:00,39.6,16.7,30.08,NW,312,8.0,14.0,39,0.00,,,0.00,meteohub,2013-04-02 15:09:00,
2013-04-02 11:14:00,38.7,14.5,30.08,NNW,328,9.0,18.0,37,0.00,,,0.00,meteohub,2013-04-02 15:14:00,
2013-04-02 11:19:00,38.3,16.2,30.08,NNW,333,4.0,18.0,40,0.00,,,0.00,meteohub,2013-04-02 15:19:00,
2013-04-02 11:24:00,38.5,16.3,30.08,West,281,17.0,18.0,40,0.00,,,0.00,meteohub,2013-04-02 15:24:00,
2013-04-02 11:29:00,38.8,17.1,30.07,NNW,328,8.0,18.0,41,0.00,,,0.00,meteohub,2013-04-02 15:29:00,
2013-04-02 11:34:00,39.0,18.5,30.07,NW,309,8.0,21.0,43,0.00,,,0.00,meteohub,2013-04-02 15:34:00,
2013-04-02 11:39:00,39.6,18.9,30.08,WNW,283,12.0,21.0,43,0.00,,,0.00,meteohub,2013-04-02 15:39:00,
2013-04-02 11:44:00,39.0,16.7,30.07,WNW,300,9.0,21.0,40,0.00,,,0.00,meteohub,2013-04-02 15:44:00,
2013-04-02 11:49:00,39.6,17.2,30.07,NNW,343,5.0,15.0,40,0.00,,,0.00,meteohub,2013-04-02 15:49:00,
2013-04-02 11:54:00,39.4,17.1,30.07,WNW,294,14.0,18.0,40,0.00,,,0.00,meteohub,2013-04-02 15:54:00,
2013-04-02 11:59:00,39.4,16.5,30.07,WNW,291,6.0,18.0,39,0.00,,,0.00,meteohub,2013-04-02 15:59:00,
2013-04-02 12:04:00,39.4,17.1,30.06,West,278,12.0,18.0,40,0.00,,,0.00,meteohub,2013-04-02 16:04:00,
2013-04-02 12:09:00,39.7,16.2,30.06,NW,304,14.0,18.0,38,0.00,,,0.00,meteohub,2013-04-02 16:09:00,
2013-04-02 12:14:00,39.7,15.6,30.06,WNW,300,6.0,19.0,37,0.00,,,0.00,meteohub,2013-04-02 16:14:00,
2013-04-02 12:19:00,39.7,15.6,30.06,WNW,298,12.0,23.0,37,0.00,,,0.00,meteohub,2013-04-02 16:19:00,
2013-04-02 12:25:00,39.7,16.2,30.06,WNW,288,19.0,23.0,38,0.00,,,0.00,meteohub,2013-04-02 16:25:00,
2013-04-02 12:30:00,39.7,16.9,30.06,WNW,293,8.0,20.0,39,0.00,,,0.00,meteohub,2013-04-02 16:30:00,
2013-04-02 12:35:00,39.9,15.8,30.06,WNW,300,9.0,20.0,37,0.00,,,0.00,meteohub,2013-04-02 16:35:00,
2013-04-02 12:40:00,39.7,16.2,30.06,WNW,295,10.0,21.0,38,0.00,,,0.00,meteohub,2013-04-02 16:40:00,
2013-04-02 12:45:00,40.3,16.2,30.05,West,279,4.0,21.0,37,0.00,,,0.00,meteohub,2013-04-02 16:45:00,
2013-04-02 12:50:00,41.4,16.3,30.06,WNW,287,7.0,21.0,36,0.00,,,0.00,meteohub,2013-04-02 16:50:00,
2013-04-02 12:55:00,41.2,15.6,30.05,West,267,14.0,24.0,35,0.00,,,0.00,meteohub,2013-04-02 16:55:00,
2013-04-02 13:00:00,41.0,16.7,30.06,WNW,293,17.0,24.0,37,0.00,,,0.00,meteohub,2013-04-02 17:00:00,
2013-04-02 13:05:00,40.8,17.2,30.05,West,267,11.0,24.0,38,0.00,,,0.00,meteohub,2013-04-02 17:05:00,
2013-04-02 13:10:00,41.2,16.2,30.06,WNW,297,15.0,22.0,36,0.00,,,0.00,meteohub,2013-04-02 17:10:00,
2013-04-02 13:15:00,40.8,14.5,30.06,WNW,295,9.0,22.0,34,0.00,,,0.00,meteohub,2013-04-02 17:15:00,
2013-04-02 13:20:00,40.5,14.4,30.05,WNW,284,11.0,22.0,34,0.00,,,0.00,meteohub,2013-04-02 17:20:00,
2013-04-02 13:25:00,41.4,15.8,30.05,WNW,285,11.0,26.0,35,0.00,,,0.00,meteohub,2013-04-02 17:25:00,
2013-04-02 13:31:00,41.2,14.2,30.05,WNW,283,15.0,26.0,33,0.00,,,0.00,meteohub,2013-04-02 17:31:00,
2013-04-02 13:36:00,41.7,14.0,30.05,West,278,11.0,26.0,32,0.00,,,0.00,meteohub,2013-04-02 17:36:00,
2013-04-02 13:41:00,41.7,15.4,30.05,WNW,290,7.0,24.0,34,0.00,,,0.00,meteohub,2013-04-02 17:41:00,
2013-04-02 13:46:00,41.2,14.2,30.04,West,275,14.0,24.0,33,0.00,,,0.00,meteohub,2013-04-02 17:46:00,
2013-04-02 13:52:00,42.3,15.3,30.04,WNW,302,12.0,20.0,33,0.00,,,0.00,meteohub,2013-04-02 17:52:00,
2013-04-02 13:57:00,42.3,14.5,30.04,West,277,10.0,22.0,32,0.00,,,0.00,meteohub,2013-04-02 17:57:00,
2013-04-02 14:02:00,41.9,14.2,30.04,WNW,289,10.0,22.0,32,0.00,,,0.00,meteohub,2013-04-02 18:02:00,
2013-04-02 14:07:00,41.7,15.4,30.04,WNW,295,10.0,22.0,34,0.00,,,0.00,meteohub,2013-04-02 18:07:00,
2013-04-02 14:12:00,41.7,14.7,30.04,WNW,298,10.0,22.0,33,0.00,,,0.00,meteohub,2013-04-02 18:12:00,
2013-04-02 14:17:00,42.3,15.8,30.04,NW,308,14.0,22.0,34,0.00,,,0.00,meteohub,2013-04-02 18:17:00,
2013-04-02 14:22:00,42.1,14.4,30.04,WNW,300,10.0,22.0,32,0.00,,,0.00,meteohub,2013-04-02 18:22:00,
2013-04-02 14:27:00,42.3,13.1,30.04,NW,316,9.0,20.0,30,0.00,,,0.00,meteohub,2013-04-02 18:27:00,
2013-04-02 14:32:00,42.6,14.0,30.04,NW,323,5.0,20.0,31,0.00,,,0.00,meteohub,2013-04-02 18:32:00,
2013-04-02 14:37:00,42.4,13.1,30.03,WNW,289,13.0,20.0,30,0.00,,,0.00,meteohub,2013-04-02 18:37:00,
2013-04-02 14:42:00,42.4,14.7,30.03,WNW,298,13.0,21.0,32,0.00,,,0.00,meteohub,2013-04-02 18:42:00,
2013-04-02 14:47:00,42.4,13.1,30.04,WNW,302,14.0,21.0,30,0.00,,,0.00,meteohub,2013-04-02 18:47:00,
2013-04-02 14:52:00,42.1,12.9,30.03,WNW,298,8.0,22.0,30,0.00,,,0.00,meteohub,2013-04-02 18:52:00,
2013-04-02 14:57:00,41.7,13.3,30.03,NNW,335,7.0,23.0,31,0.00,,,0.00,meteohub,2013-04-02 18:57:00,
2013-04-02 15:02:00,42.3,13.8,30.03,NW,309,12.0,23.0,31,0.00,,,0.00,meteohub,2013-04-02 19:02:00,
2013-04-02 15:08:00,42.3,14.5,30.03,WNW,295,8.0,23.0,32,0.00,,,0.00,meteohub,2013-04-02 19:08:00,
2013-04-02 15:13:00,41.7,13.3,30.03,West,276,21.0,21.0,31,0.00,,,0.00,meteohub,2013-04-02 19:13:00,
2013-04-02 15:18:00,42.3,13.8,30.03,WNW,287,11.0,23.0,31,0.00,,,0.00,meteohub,2013-04-02 19:18:00,
2013-04-02 15:23:00,42.8,14.2,30.02,SW,232,10.0,23.0,31,0.00,,,0.00,meteohub,2013-04-02 19:23:00,
2013-04-02 15:28:00,43.3,14.0,30.02,West,280,10.0,23.0,30,0.00,,,0.00,meteohub,2013-04-02 19:28:00,
2013-04-02 15:33:00,43.3,14.0,30.02,WNW,302,17.0,18.0,30,0.00,,,0.00,meteohub,2013-04-02 19:33:00,
2013-04-02 15:38:00,42.8,13.5,30.02,WNW,297,13.0,20.0,30,0.00,,,0.00,meteohub,2013-04-02 19:38:00,
2013-04-02 15:43:00,43.3,14.0,30.02,WNW,287,8.0,20.0,30,0.00,,,0.00,meteohub,2013-04-02 19:43:00,
2013-04-02 15:48:00,43.5,14.2,30.03,West,281,8.0,22.0,30,0.00,,,0.00,meteohub,2013-04-02 19:48:00,
2013-04-02 15:53:00,43.3,14.0,30.02,WNW,284,13.0,23.0,30,0.00,,,0.00,meteohub,2013-04-02 19:53:00,
2013-04-02 15:58:00,43.0,13.6,30.03,NW,304,8.0,25.0,30,0.00,,,0.00,meteohub,2013-04-02 19:58:00,
2013-04-02 16:03:00,42.8,13.5,30.02,NW,304,7.0,25.0,30,0.00,,,0.00,meteohub,2013-04-02 20:03:00,
2013-04-02 16:08:00,43.5,13.3,30.02,WNW,293,19.0,25.0,29,0.00,,,0.00,meteohub,2013-04-02 20:08:00,
2013-04-02 16:14:00,43.5,13.3,30.03,NW,319,9.0,30.0,29,0.00,,,0.00,meteohub,2013-04-02 20:14:00,
2013-04-02 16:19:00,43.3,14.0,30.02,WNW,288,12.0,30.0,30,0.00,,,0.00,meteohub,2013-04-02 20:19:00,
2013-04-02 16:24:00,43.3,13.3,30.02,WNW,295,10.0,30.0,29,0.00,,,0.00,meteohub,2013-04-02 20:24:00,
2013-04-02 16:29:00,43.2,13.8,30.02,WNW,290,13.0,23.0,30,0.00,,,0.00,meteohub,2013-04-02 20:29:00,
2013-04-02 16:34:00,43.0,13.6,30.02,West,281,8.0,25.0,30,0.00,,,0.00,meteohub,2013-04-02 20:34:00,
2013-04-02 16:39:00,43.3,14.0,30.02,WNW,291,9.0,25.0,30,0.00,,,0.00,meteohub,2013-04-02 20:39:00,
2013-04-02 16:44:00,43.5,13.3,30.02,WNW,288,11.0,29.0,29,0.00,,,0.00,meteohub,2013-04-02 20:44:00,
2013-04-02 16:49:00,44.1,13.8,30.02,NW,304,7.0,29.0,29,0.00,,,0.00,meteohub,2013-04-02 20:49:00,
2013-04-02 16:54:00,44.1,13.8,30.03,West,271,11.0,29.0,29,0.00,,,0.00,meteohub,2013-04-02 20:54:00,
2013-04-02 16:59:00,43.7,13.5,30.03,WSW,249,11.0,23.0,29,0.00,,,0.00,meteohub,2013-04-02 20:59:00,
2013-04-02 17:04:00,43.9,13.6,30.03,WNW,293,15.0,23.0,29,0.00,,,0.00,meteohub,2013-04-02 21:04:00,
2013-04-02 17:09:00,44.1,13.8,30.03,NNW,340,9.0,23.0,29,0.00,,,0.00,meteohub,2013-04-02 21:09:00,
2013-04-02 17:14:00,44.1,13.8,30.03,West,281,8.0,23.0,29,0.00,,,0.00,meteohub,2013-04-02 21:14:00,
2013-04-02 17:19:00,44.2,14.0,30.03,West,274,14.0,23.0,29,0.00,,,0.00,meteohub,2013-04-02 21:19:00,
2013-04-02 17:24:00,44.2,12.4,30.03,West,281,11.0,22.0,27,0.00,,,0.00,meteohub,2013-04-02 21:24:00,
2013-04-02 17:29:00,43.9,12.9,30.03,NW,304,20.0,22.0,28,0.00,,,0.00,meteohub,2013-04-02 21:29:00,
2013-04-02 17:34:00,43.9,12.9,30.03,NW,321,6.0,24.0,28,0.00,,,0.00,meteohub,2013-04-02 21:34:00,
2013-04-02 17:39:00,43.9,13.6,30.04,WNW,301,6.0,24.0,29,0.00,,,0.00,meteohub,2013-04-02 21:39:00,
2013-04-02 17:44:00,44.1,12.2,30.04,WNW,291,8.0,24.0,27,0.00,,,0.00,meteohub,2013-04-02 21:44:00,
2013-04-02 17:49:00,44.1,13.1,30.04,NW,307,14.0,21.0,28,0.00,,,0.00,meteohub,2013-04-02 21:49:00,
2013-04-02 17:55:00,43.9,12.9,30.04,WNW,295,11.0,21.0,28,0.00,,,0.00,meteohub,2013-04-02 21:55:00,
2013-04-02 18:00:00,43.5,12.6,30.04,West,280,7.0,23.0,28,0.00,,,0.00,meteohub,2013-04-02 22:00:00,
2013-04-02 18:05:00,43.3,12.4,30.04,WNW,295,13.0,23.0,28,0.00,,,0.00,meteohub,2013-04-02 22:05:00,
2013-04-02 18:10:00,43.5,12.6,30.04,WNW,300,12.0,23.0,28,0.00,,,0.00,meteohub,2013-04-02 22:10:00,
2013-04-02 18:15:00,43.5,12.6,30.05,West,268,6.0,23.0,28,0.00,,,0.00,meteohub,2013-04-02 22:15:00,
2013-04-02 18:20:00,43.3,12.4,30.05,West,281,11.0,22.0,28,0.00,,,0.00,meteohub,2013-04-02 22:20:00,
2013-04-02 18:25:00,43.5,13.3,30.05,NW,316,6.0,20.0,29,0.00,,,0.00,meteohub,2013-04-02 22:25:00,
2013-04-02 18:30:00,43.5,12.6,30.05,WNW,302,6.0,20.0,28,0.00,,,0.00,meteohub,2013-04-02 22:30:00,
2013-04-02 18:35:00,43.5,12.6,30.05,WNW,295,8.0,16.0,28,0.00,,,0.00,meteohub,2013-04-02 22:35:00,
2013-04-02 18:40:00,43.5,12.6,30.05,West,278,12.0,22.0,28,0.00,,,0.00,meteohub,2013-04-02 22:40:00,
2013-04-02 18:45:00,43.2,12.2,30.05,WNW,301,16.0,22.0,28,0.00,,,0.00,meteohub,2013-04-02 22:45:00,
2013-04-02 18:50:00,43.2,12.2,30.05,WNW,295,7.0,22.0,28,0.00,,,0.00,meteohub,2013-04-02 22:50:00,
2013-04-02 18:55:00,43.2,13.1,30.06,WNW,295,5.0,22.0,29,0.00,,,0.00,meteohub,2013-04-02 22:55:00,
2013-04-02 19:01:00,43.2,13.1,30.06,WNW,284,9.0,20.0,29,0.00,,,0.00,meteohub,2013-04-02 23:01:00,
2013-04-02 19:06:00,42.8,12.7,30.06,NW,312,5.0,16.0,29,0.00,,,0.00,meteohub,2013-04-02 23:06:00,
2013-04-02 19:11:00,42.6,12.6,30.06,NW,314,5.0,16.0,29,0.00,,,0.00,meteohub,2013-04-02 23:11:00,
2013-04-02 19:16:00,42.6,13.3,30.06,NW,305,11.0,16.0,30,0.00,,,0.00,meteohub,2013-04-02 23:16:00,
2013-04-02 19:21:00,42.4,12.4,30.06,NW,304,4.0,16.0,29,0.00,,,0.00,meteohub,2013-04-02 23:21:00,
2013-04-02 19:26:00,42.3,13.1,30.06,NW,326,8.0,16.0,30,0.00,,,0.00,meteohub,2013-04-02 23:26:00,
2013-04-02 19:31:00,42.3,13.1,30.06,WNW,297,4.0,16.0,30,0.00,,,0.00,meteohub,2013-04-02 23:31:00,
2013-04-02 19:37:00,42.1,13.6,30.07,WNW,300,2.0,15.0,31,0.00,,,0.00,meteohub,2013-04-02 23:37:00,
2013-04-02 19:42:00,41.9,13.5,30.07,West,281,4.0,13.0,31,0.00,,,0.00,meteohub,2013-04-02 23:42:00,
2013-04-02 19:47:00,41.7,13.3,30.07,WNW,291,12.0,13.0,31,0.00,,,0.00,meteohub,2013-04-02 23:47:00,
2013-04-02 19:52:00,41.7,13.3,30.07,West,273,6.0,15.0,31,0.00,,,0.00,meteohub,2013-04-02 23:52:00,
2013-04-02 19:57:00,41.7,13.3,30.07,WNW,300,6.0,15.0,31,0.00,,,0.00,meteohub,2013-04-02 23:57:00,
2013-04-02 20:02:00,41.7,13.3,30.07,WNW,301,6.0,15.0,31,0.00,,,0.00,meteohub,2013-04-03 00:02:00,
2013-04-02 20:07:00,41.5,13.1,30.08,West,270,6.0,12.0,31,0.00,,,0.00,meteohub,2013-04-03 00:07:00,
2013-04-02 20:12:00,41.5,13.1,30.08,WNW,296,6.0,12.0,31,0.00,,,0.00,meteohub,2013-04-03 00:12:00,
2013-04-02 20:17:00,41.5,13.1,30.08,WNW,293,9.0,12.0,31,0.00,,,0.00,meteohub,2013-04-03 00:17:00,
2013-04-02 20:23:00,41.5,13.1,30.09,NW,312,5.0,16.0,31,0.00,,,0.00,meteohub,2013-04-03 00:23:00,
2013-04-02 20:28:00,41.5,13.1,30.09,WNW,296,5.0,16.0,31,0.00,,,0.00,meteohub,2013-04-03 00:28:00,
2013-04-02 20:33:00,41.4,13.6,30.09,WNW,293,8.0,16.0,32,0.00,,,0.00,meteohub,2013-04-03 00:33:00,
2013-04-02 20:38:00,41.2,13.5,30.09,West,260,6.0,15.0,32,0.00,,,0.00,meteohub,2013-04-03 00:38:00,
2013-04-02 20:43:00,41.2,13.5,30.10,NW,304,10.0,15.0,32,0.00,,,0.00,meteohub,2013-04-03 00:43:00,
2013-04-02 20:48:00,41.2,13.5,30.10,WNW,291,7.0,15.0,32,0.00,,,0.00,meteohub,2013-04-03 00:48:00,
2013-04-02 20:53:00,41.2,13.5,30.10,NW,305,9.0,16.0,32,0.00,,,0.00,meteohub,2013-04-03 00:53:00,
2013-04-02 20:58:00,41.2,13.5,30.10,NW,305,2.0,16.0,32,0.00,,,0.00,meteohub,2013-04-03 00:58:00,
2013-04-02 21:03:00,40.8,14.0,30.10,WNW,287,9.0,16.0,33,0.00,,,0.00,meteohub,2013-04-03 01:03:00,
2013-04-02 21:08:00,40.8,14.0,30.10,WNW,290,7.0,16.0,33,0.00,,,0.00,meteohub,2013-04-03 01:08:00,
2013-04-02 21:13:00,40.6,13.8,30.11,WNW,298,6.0,16.0,33,0.00,,,0.00,meteohub,2013-04-03 01:13:00,
2013-04-02 21:19:00,40.5,14.4,30.11,WNW,298,4.0,11.0,34,0.00,,,0.00,meteohub,2013-04-03 01:19:00,
2013-04-02 21:24:00,40.3,14.2,30.11,WNW,288,3.0,11.0,34,0.00,,,0.00,meteohub,2013-04-03 01:24:00,
2013-04-02 21:29:00,40.1,14.0,30.11,WNW,284,5.0,10.0,34,0.00,,,0.00,meteohub,2013-04-03 01:29:00,
2013-04-02 21:34:00,40.1,14.0,30.11,West,264,6.0,12.0,34,0.00,,,0.00,meteohub,2013-04-03 01:34:00,
2013-04-02 21:39:00,40.1,14.7,30.12,WNW,302,8.0,12.0,35,0.00,,,0.00,meteohub,2013-04-03 01:39:00,
2013-04-02 21:44:00,40.1,14.7,30.12,WNW,284,6.0,12.0,35,0.00,,,0.00,meteohub,2013-04-03 01:44:00,
2013-04-02 21:49:00,39.9,14.5,30.12,WNW,288,4.0,12.0,35,0.00,,,0.00,meteohub,2013-04-03 01:49:00,
2013-04-02 21:54:00,39.9,15.1,30.12,West,266,6.0,12.0,36,0.00,,,0.00,meteohub,2013-04-03 01:54:00,
2013-04-02 21:59:00,39.7,14.9,30.12,West,280,4.0,11.0,36,0.00,,,0.00,meteohub,2013-04-03 01:59:00,
2013-04-02 22:04:00,39.6,14.7,30.13,WNW,283,3.0,11.0,36,0.00,,,0.00,meteohub,2013-04-03 02:04:00,
2013-04-02 22:09:00,39.6,14.7,30.13,WNW,284,5.0,11.0,36,0.00,,,0.00,meteohub,2013-04-03 02:09:00,
2013-04-02 22:14:00,39.6,14.7,30.13,WNW,285,4.0,11.0,36,0.00,,,0.00,meteohub,2013-04-03 02:14:00,
2013-04-02 22:19:00,39.4,15.3,30.13,WNW,284,4.0,11.0,37,0.00,,,0.00,meteohub,2013-04-03 02:19:00,
2013-04-02 22:24:00,39.2,15.1,30.13,WSW,255,5.0,11.0,37,0.00,,,0.00,meteohub,2013-04-03 02:24:00,
2013-04-02 22:29:00,39.2,15.1,30.13,West,273,3.0,9.0,37,0.00,,,0.00,meteohub,2013-04-03 02:29:00,
2013-04-02 22:34:00,39.0,14.9,30.13,WSW,253,5.0,9.0,37,0.00,,,0.00,meteohub,2013-04-03 02:34:00,
2013-04-02 22:39:00,39.2,15.1,30.13,WNW,285,6.0,10.0,37,0.00,,,0.00,meteohub,2013-04-03 02:39:00,
2013-04-02 22:44:00,39.0,15.6,30.14,WNW,291,3.0,12.0,38,0.00,,,0.00,meteohub,2013-04-03 02:44:00,
2013-04-02 22:49:00,38.8,15.4,30.14,WNW,295,7.0,12.0,38,0.00,,,0.00,meteohub,2013-04-03 02:49:00,
2013-04-02 22:54:00,38.8,15.4,30.14,WNW,295,5.0,12.0,38,0.00,,,0.00,meteohub,2013-04-03 02:54:00,
2013-04-02 22:59:00,38.7,15.8,30.14,NNW,333,3.0,9.0,39,0.00,,,0.00,meteohub,2013-04-03 02:59:00,
2013-04-02 23:04:00,38.7,15.8,30.14,West,281,4.0,9.0,39,0.00,,,0.00,meteohub,2013-04-03 03:04:00,
2013-04-02 23:10:00,38.7,15.8,30.14,WNW,297,6.0,10.0,39,0.00,,,0.00,meteohub,2013-04-03 03:10:00,
2013-04-02 23:15:00,38.5,16.3,30.14,WNW,284,3.0,10.0,40,0.00,,,0.00,meteohub,2013-04-03 03:15:00,
2013-04-02 23:20:00,38.3,16.2,30.14,WNW,288,4.0,10.0,40,0.00,,,0.00,meteohub,2013-04-03 03:20:00,
2013-04-02 23:25:00,38.1,16.5,30.14,West,264,4.0,10.0,41,0.00,,,0.00,meteohub,2013-04-03 03:25:00,
2013-04-02 23:30:00,38.1,16.5,30.14,WNW,291,4.0,10.0,41,0.00,,,0.00,meteohub,2013-04-03 03:30:00,
2013-04-02 23:35:00,37.9,16.3,30.14,WNW,284,4.0,10.0,41,0.00,,,0.00,meteohub,2013-04-03 03:35:00,
2013-04-02 23:40:00,37.8,16.7,30.14,WNW,283,4.0,9.0,42,0.00,,,0.00,meteohub,2013-04-03 03:40:00,
2013-04-02 23:45:00,37.8,16.7,30.14,WNW,284,5.0,9.0,42,0.00,,,0.00,meteohub,2013-04-03 03:45:00,
2013-04-02 23:50:00,37.6,16.5,30.14,WNW,290,7.0,9.0,42,0.00,,,0.00,meteohub,2013-04-03 03:50:00,
2013-04-02 23:55:00,37.6,17.1,30.14,WNW,287,5.0,8.0,43,0.00,,,0.00,meteohub,2013-04-03 03:55:00,